Appleton, MN

4:25 AM CDT on August 30, 2016 (GMT -0500)
Appleton Municipal

Weather History for KAQP - October, 2011

Change the Weather History Date:

Tuesday, October 4, 2011

  Actual Average Record
Temperature  
Mean Temperature 66 °F -  
Max Temperature 84 °F 62 °F 84 °F (2011)
Min Temperature 48 °F 37 °F 23 °F (2004)
Cooling Degree Days 1    
Growing Degree Days 16 (Base 50)    
Moisture  
Dew Point 38 °F    
Average Humidity 37    
Maximum Humidity 71    
Minimum Humidity 18    
Precipitation  
Precipitation 0.00 in - - ()
Sea Level Pressure  
Sea Level Pressure 30.01 in    
Wind  
Wind Speed 9 mph (SE)    
Max Wind Speed 18 mph    
Max Gust Speed 25 mph    
Visibility 10 miles    
Events      
Averages and records for this station are not official NWS values.
T = Trace of Precipitation, MM = Missing Value Source: NWS Daily Summary

Daily Weather History Graph

Daily Weather History Graph

Search for Another Location

Airport or City:

Trip Planner

Search our weather history database for the weather conditions in past years. The results will help you decide how hot, cold, wet, or windy it might be!

Date:

Astronomy

Oct. 04, 2011 Rise Set
Actual Time 7:25 AM CDT 6:59 PM CDT
Civil Twilight 6:56 AM CDT 7:28 PM CDT
Nautical Twilight 6:22 AM CDT 8:02 PM CDT
Astronomical Twilight 5:47 AM CDT 8:37 PM CDT
Moon 3:19 PM CDT (10/4) No Moon Set
Length of Visible Light 12h 32m
Length of Day
11h 33m
First Quarter, 56% of the Moon is Illuminated
Oct 4
First Quarter
Oct 11
Full
Oct 19
Last Quarter
Oct 26
New
Nov 2
First Quarter

Hourly Weather History & Observations

Time (CDT) Temp. Dew Point Humidity Pressure Visibility Wind Dir Wind Speed Gust Speed Precip Events Conditions
12:15 AM 60.8 °F 35.6 °F 39% 30.08 in 10.0 mi SSE 6.9 mph - N/A   Clear
12:35 AM 60.8 °F 37.4 °F 42% 30.08 in 10.0 mi SSE 6.9 mph - N/A   Clear
12:55 AM 60.8 °F 37.4 °F 42% 30.08 in 10.0 mi SSE 8.1 mph - N/A   Clear
1:15 AM 60.8 °F 37.4 °F 42% 30.08 in 10.0 mi SSE 8.1 mph - N/A   Clear
1:34 AM 59.0 °F 37.4 °F 45% 30.08 in 10.0 mi SSE 6.9 mph - N/A   Clear
1:55 AM 57.2 °F 37.4 °F 48% 30.08 in 10.0 mi SSE 6.9 mph - N/A   Clear
2:15 AM 57.2 °F 37.4 °F 48% 30.09 in 10.0 mi SE 5.8 mph - N/A   Clear
2:35 AM 57.2 °F 37.4 °F 48% 30.09 in 10.0 mi SE 4.6 mph - N/A   Clear
2:55 AM 57.2 °F 37.4 °F 48% 30.09 in 10.0 mi SE 6.9 mph - N/A   Clear
3:15 AM 57.2 °F 37.4 °F 48% 30.08 in 10.0 mi SSE 6.9 mph - N/A   Clear
3:35 AM 55.4 °F 37.4 °F 51% 30.08 in 10.0 mi SE 5.8 mph - N/A   Clear
4:15 AM 51.8 °F 37.4 °F 58% 30.08 in 10.0 mi SE 5.8 mph - N/A   Clear
4:35 AM 51.8 °F 39.2 °F 62% 30.07 in 10.0 mi ESE 6.9 mph - N/A   Clear
4:55 AM 53.6 °F 39.2 °F 58% 30.07 in 10.0 mi SE 6.9 mph - N/A   Clear
5:15 AM 51.8 °F 39.2 °F 62% 30.07 in 10.0 mi ESE 5.8 mph - N/A   Clear
5:35 AM 50.0 °F 39.2 °F 66% 30.06 in 10.0 mi SE 6.9 mph - N/A   Clear
5:55 AM 51.8 °F 39.2 °F 62% 30.06 in 10.0 mi SE 8.1 mph - N/A   Clear
6:14 AM 51.8 °F 39.2 °F 62% 30.06 in 10.0 mi SE 6.9 mph - N/A   Clear
6:54 AM 50.0 °F 37.4 °F 62% 30.06 in 10.0 mi ESE 5.8 mph - N/A   Clear
7:15 AM 50.0 °F 37.4 °F 62% 30.07 in 10.0 mi ESE 5.8 mph - N/A   Clear
7:35 AM 48.2 °F 39.2 °F 71% 30.06 in 10.0 mi ESE 6.9 mph - N/A   Clear
8:15 AM 51.8 °F 39.2 °F 62% 30.07 in 10.0 mi ESE 8.1 mph - N/A   Clear
8:35 AM 55.4 °F 39.2 °F 54% 30.07 in 10.0 mi SE 8.1 mph - N/A   Clear
9:15 AM 57.2 °F 37.4 °F 48% 30.06 in 10.0 mi SE 10.4 mph - N/A   Clear
9:35 AM 62.6 °F 39.2 °F 42% 30.06 in 10.0 mi SE 9.2 mph - N/A   Clear
10:15 AM 66.2 °F 37.4 °F 35% 30.05 in 10.0 mi SSE 10.4 mph - N/A   Clear
10:36 AM 69.8 °F 37.4 °F 31% 30.05 in 10.0 mi SSE 10.4 mph - N/A   Clear
10:54 AM 71.6 °F 37.4 °F 29% 30.04 in 10.0 mi SSE 12.7 mph - N/A   Clear
11:15 AM 73.4 °F 37.4 °F 27% 30.03 in 10.0 mi SE 15.0 mph 19.6 mph N/A   Clear
11:35 AM 75.2 °F 35.6 °F 24% 30.03 in 10.0 mi SE 11.5 mph 18.4 mph N/A   Clear
11:54 AM 75.2 °F 35.6 °F 24% 30.02 in 10.0 mi SE 13.8 mph 18.4 mph N/A   Clear
12:14 PM 78.8 °F 35.6 °F 21% 30.01 in 10.0 mi SSE 16.1 mph 21.9 mph N/A   Clear
12:34 PM 78.8 °F 35.6 °F 21% 30.01 in 10.0 mi SSE 15.0 mph 21.9 mph N/A   Clear
12:55 PM 80.6 °F 35.6 °F 20% 30.00 in 10.0 mi SSE 13.8 mph 21.9 mph N/A   Clear
1:15 PM 82.4 °F 35.6 °F 19% 29.99 in 10.0 mi SE 17.3 mph 23.0 mph N/A   Clear
1:35 PM 84.2 °F 35.6 °F 18% 29.98 in 10.0 mi SSE 16.1 mph 23.0 mph N/A   Clear
2:14 PM 82.4 °F 35.6 °F 19% 29.96 in 10.0 mi SSE 17.3 mph 25.3 mph N/A   Clear
2:35 PM 82.4 °F 35.6 °F 19% 29.95 in 10.0 mi SSE 18.4 mph 21.9 mph N/A   Clear
2:55 PM 84.2 °F 35.6 °F 18% 29.95 in 10.0 mi SSE 13.8 mph 20.7 mph N/A   Clear
3:15 PM 84.2 °F 35.6 °F 18% 29.95 in 10.0 mi SSE 15.0 mph 23.0 mph N/A   Clear
3:35 PM 84.2 °F 37.4 °F 19% 29.95 in 10.0 mi SSE 17.3 mph 24.2 mph N/A   Clear
3:54 PM 82.4 °F 37.4 °F 20% 29.94 in 10.0 mi SSE 12.7 mph 23.0 mph N/A   Clear
4:14 PM 82.4 °F 37.4 °F 20% 29.94 in 10.0 mi SSE 11.5 mph 19.6 mph N/A   Clear
4:54 PM 84.2 °F 37.4 °F 19% 29.93 in 10.0 mi SSE 15.0 mph 21.9 mph N/A   Clear
5:15 PM 84.2 °F 37.4 °F 19% 29.93 in 10.0 mi SSE 13.8 mph 19.6 mph N/A   Clear
5:35 PM 82.4 °F 37.4 °F 20% 29.93 in 10.0 mi SE 13.8 mph 20.7 mph N/A   Clear
5:55 PM 82.4 °F 39.2 °F 21% 29.93 in 10.0 mi SE 13.8 mph 17.3 mph N/A   Clear
6:15 PM 80.6 °F 39.2 °F 23% 29.92 in 10.0 mi SE 11.5 mph - N/A   Clear
6:35 PM 80.6 °F 39.2 °F 23% 29.92 in 10.0 mi SE 10.4 mph - N/A   Clear
6:54 PM 78.8 °F 39.2 °F 24% 29.93 in 10.0 mi SE 9.2 mph - N/A   Clear
7:14 PM 77.0 °F 41.0 °F 28% 29.93 in 10.0 mi SE 9.2 mph - N/A   Clear
7:34 PM 75.2 °F 41.0 °F 29% 29.93 in 10.0 mi SE 10.4 mph - N/A   Clear
7:54 PM 73.4 °F 42.8 °F 33% 29.93 in 10.0 mi SE 9.2 mph - N/A   Clear
8:14 PM 73.4 °F 42.8 °F 33% 29.93 in 10.0 mi SE 10.4 mph - N/A   Clear
8:35 PM 71.6 °F 42.8 °F 35% 29.93 in 10.0 mi SE 8.1 mph - N/A   Clear
8:55 PM 71.6 °F 42.8 °F 35% 29.93 in 10.0 mi SE 8.1 mph - N/A   Clear
9:14 PM 71.6 °F 42.8 °F 35% 29.94 in 10.0 mi SE 8.1 mph - N/A   Clear
9:35 PM 69.8 °F 42.8 °F 38% 29.94 in 10.0 mi SE 6.9 mph - N/A   Clear
9:54 PM 69.8 °F 44.6 °F 40% 29.94 in 10.0 mi SE 8.1 mph - N/A   Clear
10:14 PM 68.0 °F 44.6 °F 43% 29.94 in 10.0 mi SE 8.1 mph - N/A   Clear
10:34 PM 69.8 °F 44.6 °F 40% 29.94 in 10.0 mi SE 8.1 mph - N/A   Clear
10:54 PM 69.8 °F 44.6 °F 40% 29.94 in 10.0 mi SE 9.2 mph - N/A   Clear
11:14 PM 69.8 °F 44.6 °F 40% 29.93 in 10.0 mi SE 10.4 mph - N/A   Clear
11:35 PM 69.8 °F 44.6 °F 40% 29.93 in 10.0 mi SE 11.5 mph - N/A   Clear